This is the latest recevied weather packets stored in our database for station/object KG2V. If no packets are shown the sender has not sent any weather packets the latest 10 day(s).
| Time | Temp. | Humidity | Pressure | Rain* | Wind** | Luminosity | Snow |
|---|---|---|---|---|---|---|---|
| 1777557437 | 8.89° C | 81% | 1005.9 hPa | 0 mm | - | 217 W/m² | - |
| 1777557134 | 7.78° C | 83% | 1006 hPa | 0 mm | - | 246 W/m² | - |
| 1777556829 | 7.78° C | 83% | 1005.9 hPa | 0 mm | - | 209 W/m² | - |
| 1777556526 | 7.78° C | 85% | 1005.8 hPa | 0 mm | - | 197 W/m² | - |
| 1777556225 | 7.22° C | 84% | 1005.6 hPa | 0 mm | - | 188 W/m² | - |
| 1777555921 | 7.22° C | 85% | 1005.6 hPa | 0 mm | - | 166 W/m² | - |
| 1777555617 | 7.78° C | 85% | 1005.5 hPa | 0 mm | - | 152 W/m² | - |
| 1777555314 | 7.22° C | 87% | 1005.6 hPa | 0 mm | - | 119 W/m² | - |
| 1777555011 | 7.22° C | 87% | 1005.6 hPa | 0 mm | - | 133 W/m² | - |
| 1777554708 | 7.22° C | 88% | 1005.6 hPa | 0 mm | - | 125 W/m² | - |
| 1777554404 | 7.22° C | 89% | 1006 hPa | 0 mm | - | 135 W/m² | - |
| 1777554101 | 6.67° C | 89% | 1005.8 hPa | 0 mm | - | 133 W/m² | - |
| 1777553798 | 6.67° C | 90% | 1005.6 hPa | 0 mm | - | 117 W/m² | - |
| 1777553494 | 6.67° C | 90% | 1005.7 hPa | 0 mm | - | 128 W/m² | - |
| 1777553189 | 6.67° C | 90% | 1005.9 hPa | 0 mm | - | 120 W/m² | - |
| 1777552886 | 6.67° C | 91% | 1005.8 hPa | 0 mm | - | 132 W/m² | - |
| 1777552586 | 6.11° C | 91% | 1005.9 hPa | 0 mm | - | 127 W/m² | - |
| 1777552283 | 6.11° C | 92% | 1005.9 hPa | 0 mm | - | 115 W/m² | - |
| 1777551979 | 6.11° C | 92% | 1005.9 hPa | 0 mm | - | 102 W/m² | - |
| 1777551677 | 6.11° C | 92% | 1005.8 hPa | 0 mm | - | 78 W/m² | - |
| 1777551374 | 5.56° C | 92% | 1006.1 hPa | 0 mm | - | 72 W/m² | - |
| 1777551071 | 5.56° C | 93% | 1006.1 hPa | 0 mm | - | 82 W/m² | - |
| 1777550768 | 5.56° C | 93% | 1006.1 hPa | 0 mm | - | 87 W/m² | - |
| 1777550464 | 5.56° C | 94% | 1006 hPa | 0 mm | - | 76 W/m² | - |
| 1777550160 | 5.56° C | 94% | 1006.3 hPa | 0 mm | - | 80 W/m² | - |
* Rain latest hour (hover to see other rain measurements)
** Current wind speed in m/s (hover to see current wind gust speed)